EW7119 Weather Reports


time (UTC)temp
F
wind
direction
speed
knots
gust
knots
rain 1hr
in
rain 24hr
in
rain mn
in
humidity
%
barometer
mb
20260505193122 37 196 3.5 7.0 0.00 0.00 0.00 83 1000.1
20260505191628 36 254 0.9 7.8 0.00 0.00 0.00 86 1000.1
20260505190013 36 192 3.5 7.8 0.00 0.00 0.00 85 999.8
20260505184528 36 185 4.3 9.6 0.00 0.00 0.00 87 1000.0
20260505183102 35 163 3.5 8.7 0.00 0.00 0.00 90 1000.0
20260505181505 35 196 4.3 8.7 0.00 0.00 0.00 91 999.9
20260505180020 34 184 6.1 10.4 0.00 0.00 0.00 91 1000.1
20260505174507 35 208 4.3 12.2 0.00 0.00 0.00 90 1000.0
20260505173022 35 166 3.5 7.8 0.00 0.00 0.00 90 1000.0
20260505171536 34 211 3.5 7.8 0.00 0.00 0.00 90 1000.2
20260505170044 34 128 5.2 7.8 0.00 0.00 0.00 90 1000.4
20260505164547 34 180 4.3 7.8 0.00 0.00 0.00 91 1000.3
20260505163108 34 150 3.5 7.8 0.00 0.00 0.00 91 1000.4
20260505161623 34 138 2.6 8.7 0.00 0.00 0.00 90 1000.4
20260505160112 34 201 3.5 8.7 0.00 0.00 0.00 90 1000.4
20260505153052 34 144 2.6 8.7 0.00 0.00 0.00 90 1000.4
20260505151553 35 148 5.2 7.8 0.00 0.00 0.00 88 1000.3
20260505150105 35 146 2.6 5.2 0.00 0.00 0.00 87 1000.3
20260505124549 35 173 0.0 0.9 0.00 0.00 0.00 93 999.9
20260505123046 35 173 0.0 4.3 0.00 0.00 0.00 93 999.7
20260505121551 35 175 0.0 0.0 0.00 0.00 0.00 92 999.7
20260505120114 35 175 0.0 0.0 0.00 0.00 0.00 92 999.5
20260505114614 35 175 0.0 0.0 0.00 0.00 0.00 92 999.9
20260505113120 35 175 0.0 0.0 0.00 0.00 0.00 92 999.9
20260505111557 36 175 0.0 0.0 0.00 0.00 0.00 92 999.9
20260505110110 36 175 0.0 0.0 0.00 0.00 0.00 92 999.8
20260505101525 35 153 1.7 5.2 0.00 0.00 0.00 91 999.6
20260505100007 35 139 0.9 4.3 0.00 0.00 0.00 91 999.8
20260505094542 35 123 2.6 6.1 0.00 0.00 0.00 91 999.9
20260505093051 35 188 0.9 2.6 0.00 0.00 0.00 89 1000.0
20260505091614 35 315 0.0 0.0 0.00 0.00 0.00 88 999.7
20260505090057 35 315 0.0 0.0 0.00 0.00 0.00 88 999.8
20260505084548 35 315 0.0 0.0 0.00 0.00 0.00 88 999.7
20260505083057 35 315 0.0 0.0 0.00 0.00 0.00 87 1000.0
20260505081606 36 315 0.0 0.0 0.00 0.00 0.00 87 1000.3
20260505080112 36 315 0.0 0.0 0.00 0.00 0.00 88 1000.3
20260505074617 36 306 0.0 0.0 0.00 0.00 0.00 89 1000.4
20260505073124 36 306 0.0 0.0 0.00 0.00 0.00 89 1000.5
20260505071550 36 306 0.0 0.0 0.00 0.00 0.00 88 1000.8
20260505070040 37 306 0.0 0.0 0.00 0.00 0.00 87 1000.5
20260505064619 37 306 0.0 0.0 0.00 0.00 0.00 87 1000.6
20260505063115 38 306 0.9 3.5 0.00 0.00 0.00 85 1000.5
20260505061620 38 169 0.0 2.6 0.00 0.00 0.00 83 1000.3
20260505060119 38 325 0.0 0.0 0.00 0.00 0.00 84 1000.5
20260505054612 38 325 0.0 0.0 0.00 0.00 0.00 83 1000.8
20260505053017 39 325 0.0 0.0 0.00 0.00 0.00 81 1000.8
20260505051521 40 325 0.0 0.0 0.00 0.00 0.00 77 1000.7
20260505041633 41 132 1.7 2.6 0.00 0.00 0.00 70 1000.2
20260505040123 42 132 0.0 3.5 0.00 0.00 0.00 68 999.9
20260505034559 41 132 1.7 3.5 0.00 0.00 0.00 70 1000.0
20260505033109 39 84 1.7 5.2 0.00 0.00 0.00 78 999.7
20260505031617 39 49 0.9 5.2 0.00 0.00 0.00 81 999.5
20260505030113 39 111 0.0 2.6 0.00 0.00 0.00 81 999.6
20260505024607 40 111 0.0 0.9 0.00 0.00 0.00 77 999.3
20260505023109 40 111 0.0 2.6 0.00 0.00 0.00 74 998.9
20260505021611 39 5 0.0 4.3 0.00 0.00 0.00 78 998.9
20260505020125 39 89 2.6 7.8 0.00 0.00 0.00 81 998.8
20260505014546 39 26 3.5 7.8 0.00 0.00 0.00 82 999.0
20260505013050 39 38 1.7 8.7 0.00 0.00 0.00 81 998.3
20260505011602 41 16 2.6 10.4 0.00 0.00 0.00 74 998.5
20260505010059 45 318 5.2 12.2 0.00 0.00 0.00 59 998.3
20260505004504 50 274 2.6 8.7 0.00 0.00 0.00 44 997.6
20260505003006 50 277 1.7 7.0 0.00 0.00 0.00 45 997.7
20260505001609 50 253 1.7 3.5 0.00 0.00 0.00 47 997.6
20260505000117 50 191 0.9 2.6 0.00 0.00 0.00 50 997.8
20260504234608 50 254 0.9 4.3 0.00 0.00 0.00 48 997.9
20260504233118 50 150 1.7 7.8 0.00 0.00 0.00 50 997.9
20260504231620 50 188 1.7 7.0 0.00 0.00 0.00 47 998.1
20260504230017 51 262 0.9 3.5 0.00 0.00 0.00 43 997.7
20260504224519 52 325 2.6 5.2 0.00 0.00 0.00 39 997.6
20260504223035 52 321 1.7 4.3 0.00 0.00 0.00 41 997.8
20260504221515 52 321 4.3 7.8 0.00 0.00 0.00 41 997.9
20260504220050 51 306 3.5 7.0 0.00 0.00 0.00 45 997.9
20260504214555 51 294 2.6 13.0 0.00 0.00 0.00 48 997.8
20260504213107 55 310 1.7 7.0 0.00 0.00 0.00 31 997.6
20260504211554 58 246 4.3 8.7 0.00 0.00 0.00 29 997.5
20260504204610 56 189 1.7 9.6 0.00 0.00 0.00 38 997.9
20260504203122 55 265 2.6 6.1 0.00 0.00 0.00 38 998.4
20260504201600 56 267 2.6 10.4 0.00 0.00 0.00 36 998.5
20260504200126 56 309 3.5 9.6 0.00 0.00 0.00 38 998.6
20260504194618 54 247 3.5 7.8 0.00 0.00 0.00 34 998.6